Home   Weather   Weinheim   Past weeks

Flag for Germany Past Weather in Weinheim, Baden-Württemberg, Germany — Yesterday and Last 2 Weeks

Now
48 °F

Scattered clouds.


Feels Like: 46 °F
Forecast: 40 / 54 °F
Wind: 6 mph from North

Location: Mannheim City

Current Time: Apr 26, 2017 at 12:08:39 pm

Latest Report: Apr 26, 2017 at 11:20 am


Visibility: N/A

Pressure: 29.86 "Hg

Humidity: 50%

Dew Point: 30 °F

Location of WeinheimLocation

Past Weather in Weinheim — Graph

°F

Weinheim Temperature Yesterday

Maximum temperature yesterday: 54 °F (at 9:50 am)
Minimum temperature yesterday: 46 °F (at 5:50 am)
Average temperature yesterday: 49 °F

High & Low Weather Summary for the Past Weeks

 TemperatureHumidityPressure
High63 °F (Apr 24, 6:50 pm)100% (Apr 24, 5:20 am)30.60 "Hg (Apr 24, 5:20 am)
Low28 °F (Apr 20, 5:50 am)28% (Apr 21, 12:50 pm)29.71 "Hg (Apr 25, 5:50 am)
Average49 °F51%30.22 "Hg
* Reported Apr 19 9:20 am — Apr 26 10:50 am, Weinheim, Weather by CustomWeather, © 2017

Note: Actual official high and low records may vary slightly from our data, if they occured in-between our weather recording intervals... More about our weather records

Advertising

Weinheim Weather History for the Previous 24 Hours

Scroll right to see more
 ConditionsComfort  
Time TempWeatherWind HumidityBarometerVisibility
10:50 am
Wed, Apr 26
46 °FScattered clouds.7 mph57%29.86 "HgN/A
10:20 am46 °FPartly sunny.6 mph57%29.86 "HgN/A
9:50 am46 °FPartly sunny.6 mph53%29.86 "HgN/A
9:20 am45 °FOvercast.6 mph57%29.86 "HgN/A
8:50 am45 °FPassing clouds.7 mph57%29.86 "HgN/A
8:20 am43 °FPartly sunny.7 mph66%29.86 "HgN/A
7:50 am43 °FBroken clouds.6 mph66%29.86 "HgN/A
7:20 am43 °FMostly cloudy.7 mph66%29.83 "HgN/A
6:50 am43 °FMostly cloudy.3 mph66%29.83 "HgN/A
6:20 am43 °FBroken clouds.No wind76%29.83 "HgN/A
5:20 am43 °FPartly cloudy.3 mph76%29.83 "HgN/A
8:50 pm
Tue, Apr 25
48 °FPassing clouds.3 mph58%29.80 "HgN/A
8:20 pm48 °FPassing clouds.5 mph58%29.80 "HgN/A
7:50 pm48 °FPassing clouds.6 mph54%29.80 "HgN/A
7:20 pm48 °FPassing clouds.5 mph54%29.80 "HgN/A
6:50 pm50 °FPassing clouds.5 mph50%29.80 "HgN/A
6:20 pm50 °FPassing clouds.6 mph54%29.80 "HgN/A
5:50 pm50 °FPassing clouds.6 mph50%29.80 "HgN/A
5:20 pm50 °FPartly sunny.8 mph50%29.80 "HgN/A
4:50 pm50 °FPartly sunny.9 mph47%29.80 "HgN/A
4:20 pm48 °FPartly sunny.9 mph54%29.80 "HgN/A
3:50 pm48 °FPartly sunny.9 mph54%29.83 "HgN/A
3:20 pm48 °FOvercast.9 mph58%29.83 "HgN/A
2:50 pm48 °FPartly sunny.10 mph58%29.83 "HgN/A
2:20 pm48 °FOvercast.10 mph62%29.83 "HgN/A
1:50 pm46 °FOvercast.8 mph71%29.83 "HgN/A
1:20 pm46 °FPartly sunny.8 mph71%29.83 "HgN/A
12:50 pm46 °FScattered showers. Partly sunny.12 mph76%29.80 "HgN/A
12:20 pm46 °FScattered showers. Mostly cloudy.12 mph76%29.80 "HgN/A
Weather by CustomWeather, © 2017

See weather overviewHow to use our weather pages